When you browse on this site, cookies collect data to enhance your experience and personalize the content and advertising you see.
Visit our Privacy Policy to learn more. By continuing to use the site, you agree to this use of cookies and data.
  • en France
  • Liste des pays
  • À 7 jours
  • Température de l'eau
  • Carte satellitaire
  • Carte météo
  • Widgets météo
  • user-avatar
    Se connecter

    Météo par heure à Chadakolob

    Ce jour, 12 Décembre, Mercredi

    Heure Température Précipitation Vent Pression Humidité
    00:00 -1°C° 0 mm 3 m/s 611 mmHg 75%
    01:00 -1°C° 0 mm 3 m/s 611 mmHg 76%
    02:00 -1°C° 0 mm 3 m/s 612 mmHg 77%
    03:00 -2°C° 0 mm 3 m/s 612 mmHg 78%
    04:00 -2°C° 0 mm 3 m/s 612 mmHg 78%
    05:00 -2°C° 0 mm 3 m/s 612 mmHg 78%
    06:00 -2°C° 0 mm 3 m/s 612 mmHg 78%
    07:00 -2°C° 0 mm 3 m/s 612 mmHg 74%
    08:00 -1°C° 0 mm 3 m/s 613 mmHg 71%
    09:00 0°C° 0 mm 3 m/s 613 mmHg 68%
    10:00 0°C° 0.1 mm 3 m/s 613 mmHg 68%
    11:00 +1°C° 0.1 mm 3 m/s 612 mmHg 68%
    12:00 +2°C° 0.1 mm 3 m/s 612 mmHg 68%
    13:00 +2°C° 0.7 mm 3 m/s 612 mmHg 70%
    14:00 +1°C° 0.7 mm 3 m/s 611 mmHg 73%
    15:00 +1°C° 0.7 mm 3 m/s 611 mmHg 75%
    16:00 +1°C° 0.6 mm 3 m/s 611 mmHg 76%
    17:00 +1°C° 0.6 mm 3 m/s 611 mmHg 76%
    18:00 0°C° 0.6 mm 3 m/s 611 mmHg 77%
    19:00 0°C° 0.4 mm 3 m/s 611 mmHg 77%
    20:00 0°C° 0.4 mm 3 m/s 611 mmHg 78%
    21:00 0°C° 0.4 mm 3 m/s 611 mmHg 78%
    22:00 0°C° 0.3 mm 3 m/s 611 mmHg 78%
    23:00 0°C° 0.3 mm 3 m/s 611 mmHg 78%

    Demain, 13 Décembre, Jeudi

    Heure Température Précipitation Vent Pression Humidité
    00:00 0°C° 0.3 mm 3 m/s 611 mmHg 79%
    01:00 0°C° 0.1 mm 3 m/s 611 mmHg 80%
    02:00 -1°C° 0.1 mm 3 m/s 611 mmHg 80%
    03:00 -1°C° 0.1 mm 3 m/s 611 mmHg 81%
    04:00 -2°C° 0 mm 3 m/s 611 mmHg 81%
    05:00 -4°C° 0 mm 3 m/s 611 mmHg 81%
    06:00 -4°C° 0 mm 3 m/s 610 mmHg 81%
    07:00 -4°C° 0.1 mm 3 m/s 611 mmHg 79%
    08:00 -4°C° 0.1 mm 3 m/s 612 mmHg 78%
    09:00 -2°C° 0.1 mm 2 m/s 612 mmHg 76%
    10:00 -2°C° 0.2 mm 3 m/s 612 mmHg 76%
    11:00 -1°C° 0.2 mm 3 m/s 613 mmHg 77%
    12:00 -1°C° 0.2 mm 3 m/s 613 mmHg 77%
    13:00 -1°C° 0.3 mm 3 m/s 613 mmHg 78%
    14:00 -1°C° 0.3 mm 3 m/s 614 mmHg 79%
    15:00 -2°C° 0.3 mm 3 m/s 614 mmHg 80%
    16:00 -2°C° 0.2 mm 2 m/s 614 mmHg 83%
    17:00 -3°C° 0.2 mm 2 m/s 614 mmHg 85%
    18:00 -4°C° 0.2 mm 2 m/s 615 mmHg 87%
    19:00 -5°C° 0.1 mm 2 m/s 615 mmHg 85%
    20:00 -5°C° 0.1 mm 2 m/s 615 mmHg 83%
    21:00 -6°C° 0.1 mm 2 m/s 615 mmHg 81%
    22:00 -6°C° 0 mm 2 m/s 615 mmHg 77%
    23:00 -7°C° 0 mm 2 m/s 615 mmHg 74%

    Après-demain, 14 Décembre, Vendredi

    Heure Température Précipitation Vent Pression Humidité
    00:00 -7°C° 0 mm 2 m/s 615 mmHg 71%
    01:00 -8°C° 0 mm 2 m/s 615 mmHg 70%
    02:00 -8°C° 0 mm 2 m/s 616 mmHg 68%
    03:00 -8°C° 0 mm 2 m/s 616 mmHg 67%
    04:00 -8°C° 0 mm 2 m/s 616 mmHg 67%
    05:00 -9°C° 0 mm 2 m/s 616 mmHg 67%
    06:00 -9°C° 0 mm 2 m/s 616 mmHg 67%
    07:00 -8°C° 0 mm 2 m/s 617 mmHg 66%
    08:00 -7°C° 0 mm 2 m/s 617 mmHg 65%
    09:00 -6°C° 0 mm 2 m/s 618 mmHg 64%
    10:00 -5°C° 0 mm 2 m/s 618 mmHg 62%
    11:00 -4°C° 0 mm 2 m/s 618 mmHg 61%
    12:00 -3°C° 0 mm 2 m/s 618 mmHg 59%
    13:00 -4°C° 0 mm 2 m/s 618 mmHg 60%
    14:00 -4°C° 0 mm 2 m/s 618 mmHg 61%
    15:00 -2°C° 0 mm 1 m/s 618 mmHg 62%
    16:00 -3°C° 0 mm 1 m/s 618 mmHg 64%
    17:00 -4°C° 0 mm 1 m/s 618 mmHg 67%
    18:00 -6°C° 0 mm 1 m/s 618 mmHg 69%
    19:00 -6°C° 0 mm 1 m/s 618 mmHg 69%
    20:00 -7°C° 0 mm 1 m/s 618 mmHg 69%
    21:00 -7°C° 0 mm 1 m/s 618 mmHg 70%
    22:00 -8°C° 0 mm 2 m/s 618 mmHg 70%
    23:00 -8°C° 0 mm 2 m/s 618 mmHg 70%

    15 Décembre, Samedi

    Heure Température Précipitation Vent Pression Humidité
    00:00 -9°C° 0 mm 2 m/s 618 mmHg 70%
    01:00 -9°C° 0 mm 2 m/s 617 mmHg 70%
    02:00 -10°C° 0 mm 2 m/s 617 mmHg 70%
    03:00 -10°C° 0 mm 2 m/s 617 mmHg 69%
    04:00 -10°C° 0 mm 2 m/s 617 mmHg 67%
    05:00 -10°C° 0 mm 2 m/s 617 mmHg 66%
    06:00 -10°C° 0 mm 2 m/s 617 mmHg 64%
    07:00 -9°C° 0 mm 2 m/s 618 mmHg 61%
    08:00 -7°C° 0 mm 1 m/s 619 mmHg 58%
    09:00 -6°C° 0 mm 1 m/s 619 mmHg 56%
    10:00 -4°C° 0 mm 1 m/s 620 mmHg 52%
    11:00 -3°C° 0 mm 1 m/s 620 mmHg 49%
    12:00 -2°C° 0 mm 1 m/s 620 mmHg 46%
    13:00 -2°C° 0 mm 1 m/s 620 mmHg 48%
    14:00 -2°C° 0 mm 1 m/s 620 mmHg 50%
    15:00 -2°C° 0 mm 1 m/s 620 mmHg 52%
    16:00 -3°C° 0 mm 1 m/s 620 mmHg 52%
    17:00 -6°C° 0 mm 1 m/s 619 mmHg 52%
    18:00 -8°C° 0 mm 2 m/s 619 mmHg 51%
    19:00 -8°C° 0 mm 2 m/s 619 mmHg 49%
    20:00 -8°C° 0 mm 2 m/s 619 mmHg 47%
    21:00 -8°C° 0 mm 2 m/s 619 mmHg 44%
    22:00 -8°C° 0 mm 2 m/s 619 mmHg 45%
    23:00 -8°C° 0 mm 2 m/s 619 mmHg 45%

    16 Décembre, Dimanche

    Heure Température Précipitation Vent Pression Humidité
    00:00 -8°C° 0 mm 2 m/s 619 mmHg 45%
    01:00 -8°C° 0 mm 2 m/s 619 mmHg 46%
    02:00 -7°C° 0 mm 2 m/s 619 mmHg 47%
    03:00 -7°C° 0 mm 2 m/s 619 mmHg 48%
    04:00 -7°C° 0 mm 2 m/s 620 mmHg 49%
    05:00 -7°C° 0 mm 2 m/s 620 mmHg 49%
    06:00 -6°C° 0 mm 2 m/s 620 mmHg 49%
    07:00 -5°C° 0 mm 2 m/s 620 mmHg 49%
    08:00 -5°C° 0 mm 2 m/s 621 mmHg 50%
    09:00 -4°C° 0 mm 2 m/s 621 mmHg 50%
    10:00 -2°C° 0 mm 2 m/s 621 mmHg 49%
    11:00 -1°C° 0 mm 2 m/s 621 mmHg 49%
    12:00 +1°C° 0 mm 2 m/s 621 mmHg 49%
    13:00 +1°C° 0 mm 2 m/s 621 mmHg 51%
    14:00 -1°C° 0 mm 2 m/s 621 mmHg 54%
    15:00 +1°C° 0 mm 1 m/s 620 mmHg 56%
    16:00 -2°C° 0 mm 2 m/s 620 mmHg 54%
    17:00 -4°C° 0 mm 2 m/s 619 mmHg 53%
    18:00 -5°C° 0 mm 2 m/s 619 mmHg 51%
    19:00 -5°C° 0 mm 2 m/s 619 mmHg 51%
    20:00 -5°C° 0 mm 2 m/s 619 mmHg 51%
    21:00 -5°C° 0 mm 2 m/s 619 mmHg 51%
    22:00 -5°C° 0 mm 2 m/s 619 mmHg 52%
    23:00 -5°C° 0 mm 2 m/s 619 mmHg 54%

    17 Décembre, Lundi

    Heure Température Précipitation Vent Pression Humidité
    00:00 -5°C° 0 mm 2 m/s 618 mmHg 55%
    01:00 -5°C° 0 mm 2 m/s 618 mmHg 56%
    02:00 -5°C° 0 mm 2 m/s 618 mmHg 58%
    03:00 -5°C° 0 mm 2 m/s 618 mmHg 59%
    04:00 -5°C° 0 mm 2 m/s 618 mmHg 60%
    05:00 -5°C° 0 mm 2 m/s 618 mmHg 60%
    06:00 -5°C° 0 mm 2 m/s 618 mmHg 61%
    07:00 -2°C° 0 mm 1 m/s 618 mmHg 62%
    08:00 -1°C° 0 mm 1 m/s 619 mmHg 62%
    09:00 0°C° 0 mm 1 m/s 619 mmHg 62%
    10:00 +1°C° 0 mm 1 m/s 619 mmHg 61%
    11:00 +2°C° 0 mm 1 m/s 619 mmHg 60%
    12:00 +3°C° 0 mm 1 m/s 619 mmHg 58%
    13:00 +2°C° 0 mm 1 m/s 619 mmHg 61%
    14:00 +2°C° 0 mm 1 m/s 619 mmHg 64%
    15:00 +1°C° 0 mm 1 m/s 618 mmHg 67%
    16:00 0°C° 0 mm 1 m/s 618 mmHg 67%
    17:00 -1°C° 0 mm 1 m/s 618 mmHg 68%
    18:00 -4°C° 0 mm 2 m/s 618 mmHg 68%
    19:00 -4°C° 0 mm 2 m/s 618 mmHg 66%
    20:00 -4°C° 0 mm 2 m/s 618 mmHg 64%
    21:00 -4°C° 0 mm 2 m/s 618 mmHg 61%
    22:00 -5°C° 0 mm 2 m/s 618 mmHg 61%
    23:00 -5°C° 0 mm 2 m/s 618 mmHg 61%
    Voir plus